Location: Ward Pound Ridge Reservation
(41.2500°N, 73.6000°W)
Time: 12:15:12
(UTC-04:00)

ISS - Pass Details

Date: 12 October 2017
Orbit: 401 x 408 km, 51.6° (Epoch: 21 October)

Event Time Altitude Azimuth Distance (km) Brightness Sun altitude
Rises 19:34:21 0° 307° (NW) 2,326 1.0 -15.2°
Reaches altitude 10° 19:36:27 10° 311° (NW) 1,465 -0.2 -15.6°
Maximum altitude 19:39:43 62° 33° (NNE) 460 -3.8 -16.2°
Enters shadow 19:40:30 44° 92° (E) 571 -3.6 -16.3°
